Wind_Speed
13 13 12 12 13 13 13 12 12 13 12 11 12 13 11 10 9 8 10 13 13 11 12 13 14 15 14 13 11 10 7 7 7 5 5 6 6 5 4 4 4 4 5 8 10 11 11 11 10 9 9 9 10 13 17 20 23 25 27 29 30 29 27 26 27 29 31 28 24 23 25 26 25 24 23 23 22 21 21 20 19 17 15 15 15 16 16
11 13 13 12 12 13 13 13 12 12 12 11 11 12 12 12 11 10 10 13 14 14 14 15 14 13 12 10 8 7 7 8 9 7 6 8 7 5 5 6 5 5 6 8 10 9 8 7 8 9 9 9 10 11 15 18 19 22 25 26 27 26 23 23 23 25 30 29 24 23 24 26 27 26 24 24 23 23 22 21 19 17 16 16 17 18 18
9 11 12 11 10 10 10 10 8 7 7 7 7 8 10 11 12 11 11 14 16 15 15 16 14 12 10 9 9 9 9 9 8 6 5 5 6 7 8 7 5 5 6 7 8 7 6 6 8 9 9 9 10 10 13 15 16 18 21 21 21 19 17 18 17 17 23 26 25 25 26 27 30 30 27 24 24 23 23 22 20 18 17 17 18 19 20
8 10 11 10 9 10 9 8 8 7 5 5 5 6 8 9 10 10 14 17 18 17 17 17 15 12 10 8 7 7 7 6 5 3 2 3 6 9 10 9 8 7 6 7 7 6 7 8 9 10 10 9 9 10 10 11 11 13 14 14 15 14 15 16 15 13 14 16 17 21 25 27 29 29 29 27 25 24 25 23 21 19 19 19 20 21 22
8 9 11 11 9 8 6 6 7 8 8 7 7 8 9 9 8 8 12 17 18 18 17 15 13 12 10 7 5 5 4 3 4 4 3 5 7 10 15 12 11 12 10 8 8 8 9 10 10 11 11 10 9 10 10 10 10 10 11 11 11 12 13 13 13 13 13 11 10 14 21 26 26 24 26 29 30 29 29 27 24 22 21 21 22 22 23
6 10 12 12 9 5 4 3 4 6 8 8 8 10 11 11 10 8 9 13 17 17 15 13 13 14 13 10 9 8 6 4 4 4 5 7 8 14 20 16 13 14 13 10 10 10 10 11 11 12 13 12 11 11 11 11 11 10 11 11 10 10 10 10 10 10 11 10 8 9 13 19 21 20 20 25 30 31 30 28 26 24 24 24 24 24 24
5 8 9 7 4 3 4 5 5 5 5 5 6 7 9 11 12 11 9 13 17 18 16 15 16 15 13 12 11 9 8 7 7 6 7 8 9 14 19 18 16 15 14 13 12 12 12 12 12 13 13 13 13 13 12 12 11 10 10 10 9 9 9 8 7 7 7 7 7 8 9 12 15 15 15 17 22 24 24 23 23 24 25 25 26 27 26
7 5 4 2 3 6 6 5 6 6 6 5 4 5 6 9 12 11 9 12 18 21 19 18 17 15 14 13 12 11 11 10 7 6 9 11 12 14 18 21 21 17 14 14 14 14 15 13 12 13 14 13 12 12 12 12 12 11 9 9 8 7 7 6 6 6 6 6 6 7 8 8 9 11 12 14 16 18 20 20 21 22 23 24 26 28 29
8 8 8 6 6 6 5 6 7 8 7 6 6 7 8 10 11 10 8 10 15 20 17 14 14 15 16 15 14 14 14 12 9 9 12 16 18 20 20 21 23 22 18 16 15 14 14 13 11 11 12 12 12 12 12 12 12 11 10 9 9 8 7 6 6 6 6 6 6 7 7 7 6 7 8 10 12 14 15 17 18 19 20 21 23 26 28
10 10 8 5 3 2 4 5 5 6 6 5 5 6 8 9 9 8 8 11 15 19 18 18 19 20 19 17 17 18 18 15 12 12 13 14 16 17 16 15 20 23 21 17 14 12 11 11 10 9 9 10 10 11 12 12 11 11 11 11 10 10 9 8 7 7 7 7 7 7 7 7 8 8 8 9 11 12 13 14 15 16 18 19 20 22 24
11 10 6 3 1 2 4 6 5 5 5 5 6 5 6 8 7 5 5 10 15 18 20 23 23 20 21 22 21 20 18 17 15 13 13 13 12 12 12 11 13 17 20 19 17 14 12 11 11 10 10 9 9 10 10 11 11 12 12 12 12 11 10 9 8 8 8 8 8 8 8 8 9 9 10 11 12 13 13 14 15 16 17 19 20 21 22
12 10 6 4 2 2 4 6 6 5 6 9 8 4 6 11 12 12 10 11 12 13 14 16 15 12 16 21 21 18 16 17 17 15 14 14 12 11 11 9 8 9 13 15 15 14 13 12 13 14 13 12 11 12 12 12 12 13 12 11 11 10 9 8 8 8 9 9 10 10 10 9 9 10 10 11 12 12 13 13 14 14 16 18 19 20 21
10 9 7 6 4 2 3 4 5 5 8 9 5 3 10 16 15 14 15 13 13 14 13 13 12 10 12 16 16 15 14 15 17 16 14 13 12 10 9 7 5 5 7 9 10 11 11 11 12 14 15 14 14 14 14 15 15 14 12 10 9 8 8 8 8 9 9 10 11 12 12 12 12 11 11 12 12 12 13 13 14 15 16 17 18 19 20
9 8 8 7 5 3 1 2 3 5 7 5 2 6 15 19 16 14 14 12 12 12 11 10 10 10 11 12 13 14 14 13 14 13 11 11 10 9 8 6 6 6 6 8 9 9 9 9 8 9 10 12 11 11 11 12 12 11 10 8 7 7 7 8 9 10 10 11 12 13 13 13 13 13 13 14 14 14 15 15 16 16 17 18 18 19 20
8 8 8 5 2 3 1 1 2 5 5 2 3 11 18 19 16 14 12 10 11 11 8 7 8 9 11 12 13 14 13 11 10 10 9 8 7 8 8 8 7 7 7 7 7 8 8 7 7 7 7 8 8 8 9 9 9 9 9 8 8 7 7 8 9 10 11 12 13 14 14 14 14 14 15 15 16 17 17 18 18 18 18 18 18 19 20
6 7 7 4 2 3 3 1 1 4 5 3 5 13 18 18 16 14 11 10 11 10 7 6 8 10 12 13 13 13 13 11 10 9 9 8 7 7 7 7 7 7 7 6 5 5 4 4 4 4 5 6 6 7 8 9 9 9 9 9 9 9 8 8 9 10 11 13 14 14 14 14 15 15 16 16 17 18 19 20 20 20 20 20 21 21 22
11 11 11 9 7 5 2 1 1 4 6 5 6 13 18 17 17 17 14 13 13 11 7 7 10 13 14 14 15 14 13 13 12 11 10 8 7 6 5 4 4 4 4 4 4 3 3 3 3 2 2 3 4 4 5 7 8 9 10 10 10 11 11 12 12 12 13 14 15 16 16 17 18 19 19 19 20 20 21 21 22 23 23 24 24 25 25
19 18 17 15 14 13 10 7 6 4 5 7 10 14 18 17 17 17 16 14 15 13 8 7 10 14 14 14 15 15 14 14 13 11 9 7 5 4 2 2 2 2 2 3 4 4 4 5 5 5 5 6 6 7 7 8 9 10 11 11 12 13 14 15 16 16 16 17 18 18 19 19 20 21 22 22 23 23 24 25 26 27 27 28 28 28 29
18 18 17 16 17 18 18 16 15 13 11 9 9 10 14 17 19 19 16 15 16 15 12 9 10 13 14 14 15 15 15 13 11 9 7 5 4 5 5 6 5 5 5 6 6 6 7 8 8 9 9 9 10 10 11 12 12 13 14 14 15 16 17 18 19 19 20 20 20 21 21 22 23 24 25 25 26 26 27 28 30 30 30 31 32 33 34
21 19 16 15 16 17 18 18 19 18 17 16 13 7 6 13 17 17 15 12 13 13 12 10 9 11 13 14 14 13 12 10 8 7 6 6 7 8 8 8 7 7 7 8 8 9 10 10 11 12 12 13 13 13 14 15 15 16 17 17 18 19 20 21 21 22 22 23 23 24 24 25 26 27 28 29 29 29 30 31 32 33 34 35 36 37 38
20 18 14 13 14 16 17 17 18 18 18 17 17 14 9 8 12 12 10 9 8 9 9 8 8 9 10 10 10 9 8 7 7 6 7 9 10 10 9 9 9 9 9 10 10 11 11 12 13 13 13 13 14 14 15 15 16 17 18 19 20 21 22 23 24 24 25 25 26 26 27 28 29 29 30 30 31 32 32 32 32 33 34 34 35 36 36
16 15 14 12 11 14 16 16 17 18 17 15 15 15 13 11 11 12 11 10 9 8 7 7 7 7 7 7 7 7 7 7 8 9 10 12 13 13 12 12 12 12 12 12 13 13 13 14 14 14 14 14 15 15 15 16 16 17 18 19 20 21 21 22 23 24 24 25 25 26 26 27 28 29 29 29 29 30 31 32 32 32 32 32 33 33 34
15 16 15 14 12 13 16 16 16 17 16 15 12 10 9 8 8 7 7 6 6 6 6 6 6 6 7 8 8 8 9 10 11 13 14 14 15 15 15 15 15 15 14 15 15 15 15 15 15 15 15 15 15 15 15 16 16 17 17 18 18 19 19 20 20 21 21 21 21 21 22 22 23 24 25 25 25 25 25 26 27 27 28 28 29 30 30
14 16 16 15 13 13 15 16 16 15 15 16 14 11 9 6 4 3 2 2 3 4 5 6 7 8 9 10 11 12 13 14 15 16 16 17 17 17 17 16 16 16 16 15 15 15 15 15 14 14 14 14 14 14 15 15 16 16 16 16 17 17 17 17 18 18 18 18 18 18 18 19 19 19 20 21 22 22 22 22 23 25 26 27 27 28 28
11 15 15 12 10 11 13 14 15 15 14 14 14 13 12 11 9 7 5 3 0 2 4 5 7 8 10 11 12 13 14 15 16 17 18 18 17 17 17 16 16 15 14 13 12 12 12 12 12 12 12 12 13 13 13 14 14 15 15 15 15 15 15 16 16 16 16 16 16 16 16 16 16 17 17 19 20 22 24 24 25 25 27 28 28 29 30
11 14 13 10 10 10 11 13 14 13 13 12 11 11 11 10 9 9 8 6 4 2 0 2 4 5 7 8 9 10 11 12 13 13 14 14 14 15 14 14 14 13 11 10 10 10 10 10 10 10 11 11 11 11 12 12 12 13 13 14 14 14 14 15 15 15 15 15 15 15 15 16 17 18 19 20 20 21 22 24 25 25 26 27 28 28 30
14 15 12 11 12 12 13 14 13 12 10 9 9 8 8 7 6 5 4 4 3 3 2 2 3 4 5 6 7 7 7 8 8 9 9 10 10 11 11 10 10 10 10 9 9 9 9 9 10 10 10 10 11 11 11 11 11 12 12 12 13 13 13 13 13 13 14 14 14 15 16 17 18 19 20 20 20 20 20 20 21 22 24 25 26 27 28
14 14 13 13 13 14 13 13 11 10 9 8 8 7 7 6 5 4 3 3 3 3 4 4 4 4 5 5 6 6 6 5 6 6 7 7 7 7 8 8 9 9 9 9 9 9 9 9 9 9 10 10 10 10 10 10 11 11 11 11 12 12 12 12 12 12 12 13 13 14 16 16 17 17 17 18 18 19 18 18 18 18 19 21 23 24 25
12 12 12 12 12 11 11 9 8 7 7 7 7 7 7 6 6 5 5 5 5 6 6 7 7 7 6 6 6 5 5 4 5 5 6 6 6 6 7 8 8 9 9 9 9 9 9 9 9 9 10 10 10 10 10 10 10 10 10 10 10 10 10 11 11 10 10 11 12 13 14 14 15 15 15 15 15 16 16 16 16 16 17 18 18 19 21
8 8 8 8 9 8 7 6 5 4 4 5 6 7 7 7 7 7 7 7 8 8 9 9 10 9 9 8 7 6 5 4 4 5 6 6 6 6 7 7 8 8 8 8 9 9 8 9 9 10 10 10 11 11 10 10 9 9 9 9 9 9 9 9 8 8 8 9 10 10 11 12 13 13 13 12 12 13 13 14 15 16 16 16 16 16 17
6 6 6 6 6 5 4 5 5 4 3 3 5 7 7 8 8 9 9 9 10 10 11 12 12 11 10 9 8 7 6 5 5 5 5 5 5 5 6 6 7 7 8 8 8 8 8 9 9 10 10 11 11 10 10 9 9 8 8 8 8 8 8 7 6 6 6 7 8 8 9 9 9 9 10 10 10 12 13 14 15 15 16 16 15 15 15
4 3 3 3 2 2 2 5 6 5 3 3 5 6 8 9 9 10 10 10 11 12 12 13 13 12 11 10 9 8 6 6 5 5 5 4 4 4 5 5 6 6 7 7 7 7 8 9 10 10 11 11 10 9 9 9 9 8 8 8 8 7 6 5 4 3 4 5 6 7 7 6 6 7 8 10 11 13 14 15 15 15 16 15 15 14 14
4 1 1 1 1 2 4 6 6 5 4 5 6 7 8 9 9 9 9 10 12 13 14 14 13 12 11 9 8 7 6 5 5 5 4 4 4 3 4 4 5 6 7 7 7 7 8 9 10 11 11 11 10 10 9 9 9 9 8 7 7 6 5 4 3 3 4 4 5 5 5 4 6 7 9 11 12 13 14 15 15 15 14 14 13 13 13
5 2 2 2 4 6 7 7 8 7 7 6 6 7 9 9 8 8 9 11 12 14 14 14 13 11 10 8 7 6 5 4 4 4 4 4 4 3 3 4 5 6 6 7 7 7 8 8 9 10 11 11 10 10 9 10 9 8 7 7 6 5 4 3 4 4 4 5 5 5 5 5 7 8 10 11 11 11 12 14 15 14 13 12 12 11 12
5 4 6 6 7 8 8 8 9 8 8 8 8 9 9 9 7 8 9 10 12 13 14 13 11 10 8 7 6 4 3 3 3 4 5 5 5 5 4 4 5 5 6 6 7 7 7 8 9 10 10 10 10 10 9 9 9 8 7 6 6 5 4 5 5 5 6 6 7 7 6 6 7 8 9 9 9 10 12 14 15 15 14 12 12 11 11
4 5 6 6 7 8 8 8 8 8 8 9 9 10 10 9 8 8 9 10 12 13 12 11 9 8 6 5 4 3 3 4 5 6 6 6 6 5 5 5 5 6 6 6 6 6 7 8 9 9 9 9 9 9 9 8 8 7 7 7 6 5 5 6 6 6 7 8 8 7 7 6 7 7 7 7 8 10 12 14 15 16 15 13 12 11 11
1 3 4 5 5 6 6 6 7 7 8 9 9 9 9 9 9 10 10 11 12 11 10 8 6 4 3 2 2 3 4 5 6 7 7 7 7 6 6 6 6 6 6 6 6 6 7 8 8 7 7 8 8 8 8 7 7 7 7 7 6 5 6 6 7 7 8 9 8 7 6 5 5 5 5 6 7 9 11 13 14 16 16 15 14 12 11
1 2 3 3 4 5 5 6 7 7 8 8 8 8 8 9 10 10 10 10 10 9 6 4 3 2 1 2 3 5 6 6 6 6 7 7 7 7 6 6 6 6 5 5 5 5 6 7 6 6 7 7 7 7 7 7 7 7 7 6 5 6 6 6 6 7 8 8 7 6 5 4 4 4 4 5 7 8 10 12 14 15 16 17 16 14 12
3 3 3 3 4 5 6 7 7 7 8 8 8 8 8 8 9 9 8 8 8 7 5 4 3 3 3 5 5 6 7 7 6 6 6 7 6 6 6 5 5 5 4 4 4 5 5 5 5 6 7 8 7 7 7 7 7 7 6 5 6 6 7 6 6 5 6 6 5 4 3 2 2 2 3 4 6 8 9 11 12 14 15 17 17 16 15
5 4 4 4 4 5 6 7 7 7 8 8 8 8 8 8 7 7 6 6 6 5 4 4 4 5 5 6 6 6 7 7 6 6 5 5 5 5 5 4 4 4 4 4 4 4 4 4 5 6 6 7 7 7 7 7 6 6 5 4 6 6 6 6 6 5 4 4 3 3 2 1 0 1 2 3 5 7 8 10 11 12 14 15 16 17 16
5 5 4 4 4 5 5 6 6 7 7 7 8 8 8 8 7 5 5 5 5 5 4 4 5 5 5 5 5 6 6 6 6 5 5 4 4 4 3 3 3 3 4 4 4 3 3 3 4 5 5 6 6 6 7 6 6 5 5 6 6 6 7 7 7 6 5 4 3 2 2 1 1 1 2 3 5 7 8 9 10 11 12 13 15 16 16
6 6 5 4 4 4 5 5 6 6 7 8 8 8 8 8 7 5 4 4 4 4 4 5 5 5 5 5 5 5 6 6 6 5 5 4 4 3 3 3 3 3 3 3 3 3 2 2 4 5 5 4 4 5 6 5 6 7 7 8 8 7 8 8 8 7 6 5 4 3 2 3 3 2 3 4 6 7 8 9 9 10 10 11 13 14 15
6 6 5 5 5 5 5 6 6 6 6 7 8 8 8 8 6 5 5 4 4 4 5 6 6 6 7 6 5 5 6 7 7 6 5 4 4 4 3 3 3 3 2 2 2 2 3 3 4 5 5 4 4 5 6 6 7 8 8 8 8 8 8 8 8 7 6 5 3 3 4 4 4 4 4 5 6 6 8 9 9 9 9 10 11 13 14
6 6 6 5 5 6 6 7 7 7 7 7 8 8 8 8 7 6 6 6 6 5 5 6 7 8 8 8 7 6 6 7 7 6 5 4 4 4 4 4 3 3 3 3 3 3 3 4 5 6 6 6 6 6 7 7 7 7 7 8 8 8 8 8 7 7 5 4 4 5 5 5 5 5 5 5 6 6 8 9 9 8 8 9 9 11 12
6 6 6 6 6 7 7 7 7 7 7 8 8 8 8 9 8 8 8 8 8 7 6 6 7 8 8 8 8 7 6 7 7 7 6 5 4 5 5 5 5 4 4 3 3 4 4 5 6 7 8 8 8 8 9 8 8 7 8 8 8 7 7 7 6 6 5 5 5 5 6 5 5 5 6 6 5 6 7 8 8 8 8 8 8 8 9
5 5 6 7 7 7 7 7 7 7 8 8 8 9 9 9 8 8 8 8 9 9 8 7 7 7 7 8 8 7 7 7 7 7 6 6 6 6 6 5 5 5 5 5 4 4 5 6 7 8 9 10 11 11 11 10 9 9 9 8 7 7 7 6 7 6 6 6 5 5 5 5 5 5 5 5 5 5 6 7 7 8 8 8 7 7 6
5 6 7 7 8 8 7 7 7 7 7 7 8 8 8 7 7 8 9 8 8 9 9 8 7 7 7 7 7 8 8 8 7 7 7 6 6 7 7 7 7 6 6 6 6 5 5 6 7 9 10 11 12 12 12 12 11 11 10 8 7 8 8 7 7 7 7 6 6 6 6 5 5 5 5 5 4 4 5 5 6 6 7 8 8 7 6
6 7 8 8 8 8 7 7 7 7 7 6 7 7 7 6 7 8 9 8 8 8 8 8 8 8 8 8 8 9 10 9 9 9 9 8 7 7 7 8 8 7 7 6 7 7 6 6 7 8 9 11 12 13 13 13 12 11 10 9 8 9 9 8 8 8 7 7 7 6 6 5 5 4 3 3 3 3 3 3 4 5 6 6 7 7 6
7 8 9 8 8 8 7 7 7 7 7 7 7 7 6 6 6 7 8 8 8 8 9 9 9 9 10 9 9 9 10 11 10 11 12 12 11 10 9 8 8 8 7 6 6 6 6 6 6 7 7 8 9 11 12 12 11 11 10 9 9 9 9 9 9 9 8 8 7 7 6 5 4 3 3 2 2 1 1 1 2 3 4 5 5 5 5
8 8 8 7 7 7 7 7 8 8 9 9 9 8 7 6 7 7 7 6 7 8 8 9 9 10 10 10 9 10 10 11 11 11 13 13 14 14 13 11 9 9 9 8 6 6 6 6 6 7 7 6 6 7 8 8 9 9 9 8 8 8 9 9 10 10 9 9 8 8 7 6 5 4 4 3 2 2 1 0 0 1 2 3 4 4 4
8 8 8 7 7 7 7 8 8 9 10 10 10 9 8 7 7 7 7 6 7 7 8 8 8 8 9 10 10 10 10 11 11 11 12 12 13 14 15 14 13 12 12 11 10 9 7 7 7 7 7 7 6 5 5 5 6 7 7 8 8 8 9 10 10 11 11 10 10 9 8 8 7 6 6 5 4 3 3 2 2 1 1 2 2 3 3
8 8 8 9 9 8 8 8 9 10 10 10 11 10 10 8 7 7 7 7 7 7 7 8 8 9 10 10 11 11 12 12 12 13 13 13 13 13 14 14 13 14 14 14 14 13 11 10 9 8 8 7 7 7 6 5 5 6 6 7 8 9 10 11 11 11 11 11 10 10 9 9 8 8 7 6 5 5 4 3 3 3 2 2 2 3 3
Wind_Direction
221 219 219 214 212 217 219 215 211 210 208 206 210 214 219 218 219 230 227 218 215 209 206 214 212 205 205 206 212 218 212 216 233 233 228 230 211 177 174 195 207 220 234 237 236 236 235 233 230 225 214 208 206 197 191 197 202 200 197 199 204 209 211 209 210 214 220 223 220 212 210 211 212 212 210 209 209 210 211 211 214 221 231 238 241 241 243
209 211 212 212 212 213 214 212 211 214 214 213 216 220 222 220 221 229 223 211 205 200 201 207 208 208 203 195 199 204 197 210 228 229 225 226 214 201 219 230 224 227 236 239 243 245 240 229 218 210 204 204 204 197 191 196 202 201 199 202 209 214 218 219 219 220 222 225 225 221 216 213 212 212 209 205 203 204 207 212 217 224 232 236 239 241 244
193 197 197 194 198 203 202 198 197 206 215 218 218 218 216 211 212 217 213 204 196 191 196 203 204 204 197 189 198 204 204 214 224 222 227 235 229 223 221 218 220 232 232 223 228 235 222 204 200 196 197 202 199 188 184 187 192 197 199 203 209 214 216 216 217 219 220 224 229 229 227 223 218 213 208 204 203 205 209 214 221 225 228 232 237 241 243
185 192 198 197 202 212 213 213 217 224 234 234 225 217 211 207 210 208 200 196 191 188 196 201 197 195 193 189 196 202 200 204 208 205 227 274 257 228 213 212 212 209 206 200 202 203 188 181 181 178 176 185 186 179 177 180 183 189 195 196 198 202 202 199 199 202 207 218 228 230 230 229 223 214 208 207 208 212 215 219 224 228 229 231 236 239 240
177 183 187 180 184 203 213 221 232 236 240 242 234 224 216 214 216 208 200 199 193 188 194 197 187 187 194 189 179 182 182 184 199 204 229 278 263 210 195 201 201 190 190 192 186 177 169 167 166 162 159 159 158 157 159 165 171 177 182 183 184 188 189 191 194 199 202 207 217 222 223 224 223 220 218 217 216 219 224 226 228 231 233 234 235 237 238
181 185 174 163 168 182 182 195 215 217 218 221 221 219 217 214 216 213 203 200 192 184 188 192 181 178 180 175 169 167 167 186 213 225 251 276 254 202 190 190 184 178 178 178 173 165 159 159 158 154 153 149 146 149 152 154 157 158 158 160 161 162 166 175 183 189 196 203 208 208 208 212 217 224 225 221 219 223 229 232 231 232 235 235 234 235 236
162 180 168 160 162 142 149 187 201 193 194 198 203 217 222 217 212 205 195 193 189 182 181 186 187 187 187 185 185 182 181 194 217 242 261 264 244 210 196 186 175 173 172 168 169 168 164 165 159 152 152 152 149 152 155 156 155 152 148 149 150 149 149 155 160 164 174 190 197 195 188 192 205 214 215 211 212 217 224 228 229 231 233 234 233 234 235
134 140 127 107 101 106 126 158 156 149 155 159 170 193 206 207 205 199 198 199 192 185 186 191 195 201 202 195 192 189 182 182 198 226 229 222 208 192 180 170 166 170 174 173 175 173 168 167 165 161 161 163 162 161 161 162 162 159 157 155 153 152 152 154 158 161 164 168 174 182 186 189 199 207 207 206 208 213 219 224 227 228 230 232 234 236 238
141 121 101 107 115 114 136 149 137 134 137 140 159 176 184 192 194 192 202 208 193 187 191 193 190 195 199 191 179 172 164 162 173 187 189 188 184 178 172 159 153 157 166 173 175 171 164 165 170 169 165 167 174 174 168 167 168 166 169 171 169 170 174 174 177 179 178 176 173 176 187 198 202 205 208 211 215 219 224 228 231 232 234 236 238 239 240
158 140 116 120 129 133 175 177 156 147 142 134 141 158 172 181 187 198 220 220 201 193 193 189 184 190 196 186 170 161 155 152 162 173 172 170 169 171 172 157 142 142 147 154 162 167 168 173 179 181 180 183 190 189 179 174 177 175 173 176 176 178 184 188 191 192 191 192 190 190 198 208 213 218 221 224 228 232 235 238 240 242 244 246 247 246 246
170 160 132 116 119 160 197 204 191 174 167 147 133 132 151 152 143 150 192 197 186 181 180 175 174 184 190 178 164 157 153 150 156 166 168 162 152 147 151 146 132 128 132 138 149 161 174 187 193 192 191 192 197 200 186 173 173 175 173 174 176 178 183 188 193 197 198 200 200 200 205 211 215 220 225 229 233 237 241 244 245 246 248 251 253 255 256
177 169 138 109 119 169 201 207 200 190 172 156 147 150 151 135 119 116 125 133 137 139 146 149 150 165 175 163 149 144 144 144 145 148 149 149 145 139 137 133 122 121 125 128 136 150 167 186 196 196 193 188 189 195 190 178 178 180 177 177 180 182 186 191 197 205 209 210 211 210 210 213 216 220 226 232 237 240 244 246 247 248 249 250 253 256 258
159 158 131 109 115 164 202 205 199 190 176 164 165 183 152 140 131 130 131 128 125 126 132 137 135 137 146 142 133 129 132 134 136 137 138 141 145 147 145 141 137 133 125 119 126 141 156 168 178 181 180 177 176 180 182 180 181 182 181 184 191 196 201 205 208 214 219 221 222 220 218 218 220 224 230 236 241 245 249 251 251 252 253 253 255 257 258
121 126 116 104 93 85 165 205 179 173 177 175 189 172 155 149 148 141 132 131 137 137 135 136 133 136 146 150 144 138 138 139 140 142 145 145 145 148 149 148 143 136 134 136 143 153 161 167 173 173 170 172 174 179 184 185 184 185 189 196 204 209 211 212 211 214 218 222 223 223 224 226 228 233 239 244 248 251 254 255 256 257 257 257 258 260 261
104 103 101 99 65 34 27 213 164 167 177 179 182 173 160 154 155 149 137 143 152 148 145 143 137 144 157 162 158 150 145 146 147 148 149 145 140 138 136 133 131 128 130 138 148 157 164 174 186 190 184 184 189 194 198 200 201 203 206 209 215 219 220 219 217 216 219 222 223 224 227 231 235 241 247 252 256 258 259 260 262 263 263 262 262 262 263
92 88 85 79 41 13 354 312 208 190 189 167 162 173 167 158 159 164 162 165 164 153 143 141 142 153 164 163 158 151 145 143 143 142 139 134 128 125 124 124 127 129 129 132 137 145 151 159 177 190 193 194 196 196 197 202 207 212 216 220 228 237 241 241 240 236 235 237 238 237 240 244 249 254 258 261 264 264 264 263 263 263 264 264 264 265 266
92 93 91 84 76 63 39 304 220 215 213 196 163 172 176 171 170 174 175 173 167 155 133 126 141 156 167 162 153 148 144 143 143 142 139 137 134 131 129 127 128 134 145 152 154 159 169 180 195 211 223 232 237 233 225 223 225 226 229 234 241 248 252 254 254 252 250 250 250 251 254 258 262 265 266 268 270 271 271 271 271 272 272 272 271 271 271
88 85 81 78 79 81 83 95 105 123 181 186 170 172 180 180 177 178 176 172 167 155 137 137 151 160 167 165 156 151 149 147 148 150 152 154 156 163 180 202 216 231 228 220 217 215 214 221 230 237 246 255 263 266 265 264 263 260 258 258 258 258 259 260 260 260 257 256 256 258 261 264 267 269 269 270 271 272 274 275 276 277 278 278 278 278 278
94 87 81 79 81 82 81 86 90 94 107 125 138 166 186 186 181 181 180 175 169 160 153 162 171 170 169 167 162 159 158 158 163 169 178 192 211 227 239 245 249 253 253 249 247 243 242 244 246 247 249 252 254 256 258 262 265 266 267 267 268 268 267 267 268 269 268 267 266 265 265 266 266 267 267 268 269 269 269 270 272 273 275 277 279 280 281
103 99 91 83 80 79 77 79 82 83 86 87 86 99 177 186 181 180 178 174 171 166 162 170 183 183 178 173 170 170 170 171 179 194 215 238 251 253 254 255 258 259 256 254 253 253 254 255 256 256 256 256 256 257 258 260 262 263 264 265 267 268 269 270 271 273 274 274 275 274 273 272 271 271 271 272 272 271 270 270 270 270 272 273 275 277 278
101 96 88 78 77 78 75 73 75 75 75 77 79 81 96 139 156 159 157 155 163 170 169 173 184 190 190 188 187 188 188 190 206 234 256 267 271 273 274 276 277 275 271 269 266 263 263 264 265 265 264 263 262 262 262 263 264 264 265 266 266 267 268 269 270 271 273 274 275 276 277 277 277 277 277 278 279 279 278 277 276 275 275 275 275 276 276
97 91 83 75 74 77 73 68 67 68 67 69 77 85 93 107 123 132 138 146 155 163 169 174 179 190 203 210 215 218 220 224 237 254 266 274 279 282 285 287 286 283 281 279 278 277 277 276 276 275 274 274 273 272 272 272 271 271 270 270 269 269 269 269 270 270 270 271 272 272 274 275 276 277 277 277 277 278 279 279 279 279 278 278 278 278 278
103 96 85 77 72 71 69 64 59 59 58 56 61 73 88 99 109 119 131 146 160 170 181 191 197 206 219 227 234 241 244 248 253 260 267 273 278 282 284 285 285 285 285 285 285 285 284 282 282 282 281 281 282 282 281 280 279 278 277 275 275 274 274 273 273 274 274 274 275 275 275 276 277 278 279 280 279 278 278 279 279 279 279 279 279 279 279
106 98 88 80 71 63 62 59 55 54 53 47 42 40 44 47 51 70 111 163 197 211 222 230 233 238 242 245 249 253 256 259 263 265 268 271 274 277 280 282 283 285 286 286 286 284 282 282 282 282 282 282 283 282 281 281 280 278 277 276 276 275 274 274 275 275 276 277 277 277 278 278 278 278 280 283 285 284 284 283 283 284 284 284 284 283 282
106 101 95 86 68 53 52 54 54 54 52 44 33 26 25 28 30 34 40 47 72 224 233 240 242 245 249 251 254 257 260 262 264 266 268 271 273 276 277 278 279 280 280 280 279 276 275 277 277 277 277 277 276 275 274 274 274 274 274 274 274 274 274 274 275 275 276 278 279 279 280 281 281 281 282 284 287 289 289 289 288 288 287 287 287 287 285
99 97 95 88 72 59 56 55 53 50 48 42 34 28 29 36 43 47 50 50 47 45 17 255 252 253 257 259 260 262 263 263 264 265 266 268 270 272 273 274 274 275 275 273 270 268 269 270 271 272 273 272 272 272 271 271 271 272 272 271 271 272 272 273 275 277 278 279 280 282 283 284 286 287 288 287 288 288 289 290 291 291 291 291 290 290 289
94 90 86 81 76 70 65 60 56 52 49 47 45 43 44 50 55 57 59 53 38 28 17 350 312 288 279 274 272 273 275 274 269 264 261 260 260 261 264 266 267 267 267 265 264 264 266 268 269 270 271 271 272 273 273 274 274 274 273 273 272 271 272 274 276 277 278 280 283 286 289 291 292 292 292 292 292 291 292 293 295 296 296 297 297 297 297
91 89 84 79 75 71 65 58 56 57 56 56 57 55 51 49 51 48 40 25 12 360 350 342 331 318 304 291 283 282 283 280 270 259 253 251 250 250 252 255 257 259 261 263 264 265 267 270 271 273 274 275 276 277 278 280 279 278 277 275 272 272 273 274 275 277 281 286 291 293 294 295 296 296 296 297 297 298 299 300 302 304 305 305 306 306 306
89 89 85 77 71 66 59 53 50 52 51 48 48 46 39 32 28 22 13 6 1 353 347 342 337 331 324 311 295 281 272 266 259 249 243 241 240 241 245 249 254 257 260 263 266 269 272 275 277 279 281 282 282 283 285 284 282 278 275 272 272 272 273 274 277 283 289 293 296 298 299 300 301 302 302 304 305 307 309 310 312 313 314 315 315 314 314
88 89 83 74 66 57 48 43 42 40 32 26 25 23 18 13 7 3 0 358 355 350 346 341 336 331 327 320 307 287 269 256 245 237 235 236 237 240 246 249 251 254 256 258 262 267 272 276 280 283 286 286 286 286 285 281 276 271 268 270 273 274 273 275 281 290 295 297 299 303 307 308 308 309 311 314 317 318 319 319 319 319 320 319 319 320 321
84 77 72 69 67 58 28 8 359 350 345 355 360 358 356 353 350 349 349 348 347 345 342 338 334 329 324 318 309 295 280 267 253 242 239 239 239 243 247 250 250 251 252 253 257 263 270 275 279 282 284 284 283 283 280 275 269 267 268 273 275 273 272 277 285 293 297 302 308 314 316 317 317 319 323 326 326 325 322 320 319 319 318 319 319 321 324
99 64 43 38 53 51 344 332 333 335 334 333 335 337 340 341 341 342 343 343 341 339 336 333 330 325 320 316 310 299 288 278 267 256 250 247 243 245 249 251 252 254 255 256 259 265 272 278 281 283 283 282 280 278 274 269 264 263 265 266 264 263 263 268 274 282 290 302 311 314 315 319 324 327 329 330 327 325 323 322 321 318 317 317 318 319 320
121 95 40 32 344 289 293 304 312 319 318 310 313 325 333 335 337 339 340 339 336 333 330 328 325 320 315 311 305 296 289 282 275 270 268 267 265 261 260 258 257 257 260 262 265 269 273 278 281 281 280 278 276 273 269 263 259 258 257 254 250 251 254 255 253 263 281 293 295 293 297 309 319 324 327 329 330 330 329 329 328 324 318 315 316 316 313
128 166 231 254 272 278 281 283 285 289 295 299 307 321 328 331 334 337 338 335 332 328 325 322 319 315 311 306 297 289 283 279 278 282 289 292 292 288 277 266 262 264 267 268 268 269 271 273 274 274 273 272 269 265 260 256 253 249 246 243 242 241 243 246 252 260 269 270 264 264 275 294 310 321 328 332 335 338 340 341 341 337 329 322 320 319 316
157 210 241 259 275 285 289 285 280 280 286 292 302 314 321 326 330 332 332 330 328 325 321 318 314 310 304 296 286 281 285 298 305 305 305 303 301 298 287 276 271 273 274 273 270 270 273 274 273 271 268 264 260 255 250 247 243 239 235 234 235 233 235 243 250 256 258 255 253 257 271 290 310 325 332 336 342 348 352 355 356 354 348 338 329 325 325
181 225 251 268 280 289 293 291 286 285 287 292 300 309 317 322 325 325 325 326 327 326 322 315 308 301 293 285 282 290 307 316 314 310 306 302 300 298 294 290 288 287 283 277 273 273 275 277 277 275 270 263 255 248 243 237 230 227 227 227 225 227 232 240 246 250 252 252 252 257 272 294 316 329 334 340 349 355 359 3 6 6 3 355 341 329 325
187 246 264 271 278 288 297 299 300 300 299 301 304 309 314 318 320 321 322 326 330 331 328 319 311 303 294 296 306 310 315 316 313 307 303 300 299 297 296 295 296 295 288 277 269 270 274 276 276 274 266 253 241 236 233 227 218 215 217 216 217 226 235 241 247 253 255 254 254 259 273 298 321 332 339 347 356 360 3 7 11 12 11 7 360 347 334
343 287 282 283 290 298 303 304 306 309 310 311 312 312 314 317 318 320 324 330 335 338 340 344 351 359 352 337 323 316 318 322 318 308 299 296 294 294 293 296 300 298 286 271 266 273 277 273 264 251 240 231 224 222 221 216 209 208 210 214 222 232 239 245 253 260 261 257 254 259 274 297 321 337 348 356 360 4 8 11 13 15 16 15 12 4 353
334 315 298 294 298 300 299 299 303 308 312 314 315 314 314 315 316 320 327 334 336 340 353 9 9 352 335 327 321 318 321 324 320 309 300 296 294 295 296 301 307 301 284 273 280 289 283 264 245 234 226 219 212 209 208 206 205 207 212 228 242 246 247 248 254 263 265 259 253 258 274 294 323 351 2 7 8 12 15 15 15 16 17 18 17 14 7
335 323 303 290 295 298 296 295 299 305 309 312 314 316 317 317 317 320 328 334 335 338 350 357 347 335 328 324 318 318 320 322 319 314 307 304 304 304 304 307 314 310 292 280 287 296 285 255 235 225 213 202 195 193 195 201 207 213 225 247 260 261 258 253 253 258 263 259 253 257 268 273 355 30 24 25 25 24 24 22 20 18 18 18 19 19 17
326 322 308 292 292 301 302 299 300 304 306 309 314 320 322 322 318 314 319 329 331 328 328 331 330 328 328 326 322 321 320 320 322 325 323 315 308 302 292 290 307 315 307 292 290 295 285 249 224 205 189 181 185 192 196 203 217 235 251 263 268 267 263 260 258 258 259 259 257 252 238 196 146 121 74 54 45 39 34 29 25 23 22 21 20 20 20
319 319 316 306 301 308 314 311 305 301 300 304 311 318 324 326 322 311 305 311 313 304 301 307 316 322 325 325 325 323 322 323 328 338 342 332 316 302 281 267 277 299 311 304 296 292 280 243 217 200 186 182 197 212 216 221 237 254 264 269 271 268 265 262 260 258 257 255 248 228 196 170 158 139 97 69 58 51 46 41 34 30 30 28 25 24 23
317 317 319 315 310 309 309 307 304 302 301 304 309 314 319 322 318 303 290 290 291 285 282 287 296 303 309 314 320 326 327 327 331 339 346 345 332 321 311 295 282 282 290 296 289 280 267 243 225 215 205 205 226 243 249 250 253 258 264 268 269 268 264 259 253 251 250 245 227 198 179 169 158 137 105 82 68 59 54 51 44 38 37 37 34 32 30
312 314 315 313 309 307 303 301 302 301 299 300 303 305 309 311 310 298 284 281 284 287 287 285 286 290 295 300 310 322 327 326 327 331 337 340 337 334 338 339 331 316 302 288 273 267 264 251 239 232 228 230 243 257 266 268 267 268 272 274 272 269 261 249 239 236 233 223 199 179 172 169 157 137 114 96 80 67 59 55 50 46 42 42 42 41 38
308 312 314 313 311 311 310 305 302 298 296 296 297 296 295 299 304 302 291 280 277 280 286 287 288 289 290 290 295 307 319 324 325 325 326 327 332 338 345 354 358 356 343 320 289 274 267 259 251 245 242 243 249 260 271 278 281 283 286 284 275 263 249 232 217 207 203 198 185 172 169 167 157 139 123 108 91 75 62 56 53 50 46 44 43 43 42
307 314 318 317 317 317 315 309 301 294 291 290 291 292 293 298 303 303 296 282 272 270 275 282 287 291 291 287 285 288 297 309 318 321 319 317 320 328 337 346 354 0 0 352 328 299 282 272 265 257 252 251 254 260 268 276 281 286 289 284 266 244 227 210 193 185 184 183 176 169 168 167 159 145 131 117 101 85 70 58 52 49 47 44 41 39 37
309 316 319 321 320 317 313 306 297 291 289 289 290 294 297 297 293 289 286 279 270 266 270 277 283 287 288 285 279 275 277 284 296 305 307 306 308 313 319 326 334 344 354 356 348 332 311 293 280 269 261 258 258 260 265 271 277 281 281 271 246 225 213 198 185 182 183 181 175 172 172 170 162 151 136 123 111 97 81 67 56 48 44 42 40 36 33
310 316 319 320 319 316 310 302 294 289 290 293 295 298 299 293 282 278 279 276 270 268 270 277 282 285 285 283 279 274 272 273 277 282 286 291 296 300 305 312 319 326 334 340 341 339 331 318 301 286 273 266 263 263 265 268 271 272 268 252 227 212 207 199 191 188 190 188 185 184 183 177 171 162 150 136 125 112 95 79 63 49 40 37 35 34 32
310 313 314 316 316 314 308 298 287 283 284 288 295 299 299 290 279 276 276 275 273 272 273 276 277 277 277 279 278 276 274 274 272 270 272 277 282 284 287 293 300 304 307 312 318 323 327 326 321 310 296 281 273 269 268 266 262 257 251 236 219 210 208 206 202 201 200 200 199 200 198 193 189 188 185 177 160 136 116 90 64 48 36 28 26 28 30
304 306 308 312 315 315 309 298 286 281 281 284 289 294 292 283 276 275 276 273 271 272 275 277 277 275 275 277 279 279 279 279 277 274 273 273 275 276 277 278 280 283 284 285 287 293 302 311 316 318 315 306 293 281 272 264 253 242 232 226 220 218 217 216 215 215 213 211 210 210 211 211 213 214 214 215 216 215 212 219 326 16 17 12 10 12 17
298 299 302 308 312 313 309 301 291 284 281 281 283 283 281 277 277 278 275 266 263 265 270 275 277 276 274 275 277 278 278 278 278 277 276 275 275 275 276 276 274 273 274 275 275 277 282 290 298 306 310 311 307 298 283 264 248 236 230 229 230 232 231 228 226 224 223 222 221 220 219 220 221 223 224 225 227 231 239 247 256 278 312 333 342 343 348
293 294 297 302 306 308 307 302 294 286 281 280 279 277 273 271 273 274 271 267 266 267 269 271 272 272 270 270 271 272 273 274 274 274 274 273 272 273 275 277 277 275 275 275 276 276 276 278 282 285 290 295 298 296 288 275 259 246 240 238 239 240 240 238 235 231 229 229 229 230 230 231 230 230 230 230 231 235 242 249 254 263 276 290 304 310 309
Height
3046 3047 3048 3050 3051 3052 3053 3054 3055 3055 3056 3056 3057 3057 3058 3059 3059 3060 3061 3063 3063 3064 3065 3065 3066 3067 3068 3069 3070 3072 3073 3075 3076 3077 3078 3079 3080 3080 3081 3083 3084 3085 3085 3085 3085 3086 3087 3088 3089 3090 3092 3093 3094 3095 3097 3098 3098 3099 3101 3103 3105 3106 3108 3110 3111 3113 3113 3112 3114 3118 3120 3121 3122 3124 3126 3128 3130 3132 3134 3136 3137 3138 3140 3141 3143 3144 3145
3044 3045 3047 3048 3049 3050 3051 3053 3053 3054 3055 3055 3055 3056 3057 3057 3058 3059 3060 3061 3062 3063 3063 3064 3065 3067 3068 3069 3070 3071 3073 3074 3075 3076 3077 3078 3079 3080 3081 3082 3083 3084 3085 3085 3084 3085 3086 3087 3088 3089 3090 3091 3093 3095 3097 3097 3098 3099 3101 3103 3104 3105 3107 3108 3109 3111 3111 3112 3114 3116 3117 3118 3120 3121 3123 3126 3128 3130 3132 3134 3136 3137 3138 3139 3141 3142 3144
3043 3045 3046 3047 3048 3049 3050 3051 3052 3053 3054 3054 3055 3055 3056 3056 3057 3058 3059 3059 3060 3062 3063 3064 3065 3066 3068 3069 3070 3071 3073 3074 3075 3076 3077 3077 3078 3079 3080 3082 3083 3083 3084 3084 3084 3084 3085 3086 3087 3089 3090 3090 3091 3094 3095 3096 3097 3099 3101 3103 3104 3104 3105 3107 3108 3109 3110 3112 3113 3114 3114 3116 3117 3118 3120 3123 3125 3128 3130 3132 3133 3135 3136 3137 3139 3140 3142
3043 3044 3045 3046 3047 3048 3049 3050 3051 3052 3053 3053 3054 3055 3056 3056 3056 3057 3057 3058 3059 3061 3062 3063 3064 3066 3067 3069 3070 3071 3072 3073 3074 3076 3076 3077 3078 3079 3079 3080 3082 3082 3083 3084 3084 3084 3085 3086 3087 3088 3089 3090 3091 3092 3094 3095 3096 3098 3100 3102 3103 3103 3104 3106 3107 3108 3109 3110 3111 3112 3113 3114 3114 3115 3118 3121 3123 3125 3127 3129 3131 3133 3134 3136 3137 3138 3140
3042 3043 3044 3045 3047 3048 3049 3049 3050 3051 3051 3052 3053 3054 3055 3056 3056 3057 3057 3057 3059 3060 3061 3062 3064 3065 3067 3068 3070 3071 3072 3073 3074 3075 3076 3077 3078 3078 3078 3079 3081 3082 3083 3084 3084 3085 3085 3086 3087 3089 3090 3091 3092 3093 3094 3095 3096 3098 3099 3101 3102 3103 3104 3105 3106 3107 3108 3109 3109 3109 3110 3111 3113 3115 3117 3119 3121 3123 3125 3127 3129 3131 3133 3134 3135 3136 3138
3042 3043 3043 3044 3046 3047 3048 3049 3049 3050 3050 3051 3052 3053 3054 3055 3056 3056 3057 3057 3059 3060 3061 3063 3064 3065 3066 3068 3069 3070 3072 3073 3074 3075 3076 3076 3077 3078 3077 3078 3080 3082 3082 3083 3084 3085 3086 3087 3088 3089 3091 3092 3093 3094 3095 3096 3097 3098 3099 3101 3102 3103 3104 3105 3106 3106 3107 3108 3108 3108 3109 3110 3112 3114 3116 3117 3119 3121 3123 3125 3127 3129 3130 3132 3133 3134 3135
3042 3043 3043 3043 3045 3046 3047 3048 3048 3049 3050 3050 3051 3052 3053 3053 3055 3056 3056 3057 3058 3059 3061 3063 3064 3065 3066 3067 3068 3070 3071 3072 3074 3074 3075 3075 3076 3078 3078 3077 3079 3081 3082 3083 3084 3085 3086 3087 3089 3090 3091 3093 3094 3095 3096 3096 3097 3098 3099 3101 3102 3103 3104 3105 3106 3106 3107 3108 3108 3109 3110 3111 3112 3113 3114 3116 3117 3120 3121 3123 3124 3126 3127 3129 3130 3131 3133
3042 3042 3043 3044 3046 3047 3047 3048 3048 3049 3049 3050 3051 3051 3052 3052 3054 3055 3056 3056 3057 3058 3060 3061 3063 3064 3065 3066 3068 3069 3070 3072 3073 3074 3074 3075 3076 3077 3078 3077 3076 3079 3082 3083 3084 3085 3086 3087 3089 3090 3091 3092 3094 3095 3095 3096 3097 3098 3099 3100 3101 3103 3104 3105 3106 3107 3107 3108 3109 3110 3110 3111 3112 3113 3115 3116 3117 3119 3120 3121 3123 3124 3125 3126 3127 3128 3130
3041 3042 3044 3045 3046 3047 3048 3049 3049 3049 3049 3050 3051 3051 3052 3052 3053 3055 3055 3056 3057 3058 3059 3061 3062 3063 3065 3066 3067 3069 3070 3071 3073 3074 3075 3075 3076 3077 3078 3077 3075 3077 3080 3082 3084 3085 3086 3087 3089 3090 3090 3091 3093 3094 3095 3096 3096 3097 3098 3100 3101 3102 3103 3105 3105 3106 3107 3108 3109 3109 3110 3111 3112 3113 3114 3115 3117 3118 3119 3121 3122 3122 3123 3124 3125 3126 3127
3040 3041 3044 3046 3047 3047 3049 3049 3049 3050 3050 3051 3051 3051 3052 3052 3053 3054 3055 3056 3057 3058 3059 3060 3061 3062 3063 3065 3067 3068 3070 3071 3073 3075 3076 3077 3077 3077 3078 3078 3076 3075 3077 3080 3082 3084 3085 3086 3088 3089 3090 3091 3092 3093 3094 3095 3096 3097 3098 3099 3100 3102 3103 3104 3105 3106 3106 3107 3108 3109 3110 3111 3111 3112 3113 3114 3116 3117 3118 3119 3120 3121 3122 3122 3123 3124 3125
3040 3041 3043 3045 3047 3048 3049 3049 3050 3050 3051 3051 3052 3052 3052 3053 3054 3054 3055 3056 3057 3058 3058 3059 3060 3061 3062 3063 3065 3068 3069 3070 3072 3074 3075 3077 3077 3078 3079 3079 3079 3077 3076 3078 3080 3082 3083 3084 3086 3088 3089 3091 3092 3093 3093 3094 3095 3096 3097 3098 3100 3101 3102 3103 3104 3105 3106 3106 3107 3108 3109 3109 3110 3111 3112 3113 3114 3115 3116 3117 3118 3118 3119 3120 3120 3121 3122
3040 3041 3043 3045 3047 3048 3049 3049 3050 3050 3051 3051 3052 3052 3053 3054 3055 3056 3057 3058 3059 3060 3060 3061 3062 3063 3063 3063 3065 3067 3069 3070 3071 3073 3075 3076 3077 3078 3079 3080 3080 3080 3079 3078 3080 3081 3082 3083 3084 3086 3088 3089 3091 3092 3093 3094 3095 3096 3097 3098 3099 3100 3101 3103 3103 3104 3105 3106 3106 3107 3107 3108 3109 3110 3111 3111 3112 3113 3113 3114 3115 3116 3116 3116 3117 3118 3119
3041 3042 3044 3046 3048 3049 3049 3049 3050 3051 3051 3052 3052 3053 3054 3055 3056 3057 3058 3059 3060 3061 3062 3062 3063 3064 3064 3065 3067 3068 3069 3070 3071 3072 3074 3076 3077 3078 3078 3079 3080 3080 3081 3080 3081 3082 3083 3083 3084 3085 3087 3088 3090 3091 3092 3093 3094 3095 3096 3097 3098 3099 3100 3101 3102 3103 3104 3105 3105 3106 3106 3107 3107 3108 3109 3110 3110 3111 3111 3112 3113 3113 3113 3114 3114 3115 3115
3042 3043 3045 3046 3048 3049 3049 3050 3050 3051 3052 3052 3053 3053 3054 3055 3056 3057 3059 3060 3061 3062 3063 3064 3064 3065 3066 3067 3068 3069 3070 3071 3071 3072 3074 3075 3076 3077 3078 3079 3080 3080 3081 3081 3082 3083 3084 3084 3085 3086 3086 3087 3089 3090 3091 3093 3093 3094 3095 3096 3097 3098 3099 3100 3101 3102 3103 3103 3104 3105 3105 3106 3106 3107 3108 3108 3109 3109 3110 3110 3111 3111 3111 3112 3112 3112 3112
3043 3044 3046 3047 3049 3050 3050 3050 3050 3051 3052 3052 3053 3053 3054 3055 3057 3058 3059 3060 3061 3062 3063 3064 3065 3066 3067 3067 3068 3069 3069 3070 3071 3072 3073 3074 3075 3076 3077 3078 3079 3080 3081 3082 3083 3084 3084 3084 3085 3086 3086 3087 3088 3089 3090 3092 3093 3094 3095 3096 3097 3098 3098 3099 3100 3100 3101 3102 3103 3104 3104 3105 3106 3106 3107 3107 3107 3108 3108 3108 3108 3109 3109 3109 3109 3109 3109
3044 3045 3047 3049 3050 3050 3050 3050 3050 3051 3051 3052 3053 3054 3055 3056 3057 3058 3059 3061 3062 3063 3064 3065 3065 3066 3067 3068 3068 3069 3069 3070 3071 3072 3073 3073 3074 3075 3076 3077 3078 3080 3081 3082 3083 3083 3084 3084 3085 3086 3086 3087 3088 3089 3090 3091 3092 3092 3093 3094 3095 3096 3097 3098 3098 3099 3100 3100 3101 3102 3103 3103 3104 3104 3105 3105 3106 3106 3106 3107 3107 3107 3107 3107 3107 3107 3107
3045 3046 3048 3050 3051 3051 3051 3050 3050 3051 3051 3052 3053 3054 3055 3056 3057 3058 3059 3060 3062 3063 3064 3065 3066 3066 3067 3067 3068 3069 3069 3070 3071 3072 3073 3074 3074 3075 3076 3077 3078 3079 3080 3081 3082 3083 3083 3084 3084 3085 3086 3087 3088 3088 3089 3090 3090 3091 3092 3092 3093 3094 3095 3095 3096 3097 3097 3098 3099 3099 3100 3101 3101 3102 3102 3103 3103 3103 3104 3104 3104 3104 3104 3104 3104 3104 3104
3047 3048 3050 3051 3051 3051 3051 3051 3050 3050 3051 3052 3053 3054 3056 3057 3057 3059 3060 3061 3062 3063 3064 3065 3066 3066 3067 3068 3068 3069 3070 3071 3072 3073 3073 3074 3075 3075 3076 3077 3078 3078 3079 3080 3081 3082 3082 3083 3084 3085 3086 3086 3087 3088 3088 3089 3089 3090 3090 3091 3091 3092 3092 3093 3093 3094 3094 3095 3096 3096 3097 3098 3098 3099 3099 3099 3100 3100 3100 3100 3100 3100 3100 3100 3100 3100 3100
3048 3051 3052 3053 3052 3052 3052 3051 3051 3051 3051 3052 3053 3054 3056 3057 3058 3059 3060 3061 3061 3062 3064 3065 3066 3066 3067 3068 3069 3070 3070 3071 3072 3073 3074 3075 3075 3076 3077 3077 3078 3078 3079 3079 3080 3080 3081 3082 3083 3084 3085 3086 3087 3087 3088 3088 3088 3089 3089 3089 3089 3090 3090 3091 3091 3091 3092 3092 3093 3093 3094 3094 3095 3095 3096 3096 3097 3097 3097 3097 3097 3097 3097 3096 3096 3096 3096
3050 3052 3054 3054 3054 3054 3054 3053 3053 3052 3052 3053 3053 3055 3056 3057 3058 3059 3060 3061 3062 3063 3064 3065 3066 3067 3067 3068 3069 3070 3070 3071 3072 3073 3074 3074 3075 3075 3076 3077 3077 3078 3078 3078 3079 3080 3080 3081 3082 3083 3084 3084 3085 3085 3086 3086 3087 3087 3087 3087 3088 3088 3088 3088 3089 3089 3089 3090 3090 3090 3091 3091 3091 3092 3092 3092 3092 3093 3093 3093 3093 3093 3093 3093 3092 3092 3091
3052 3054 3055 3056 3056 3056 3056 3055 3055 3054 3055 3055 3055 3056 3057 3058 3059 3060 3061 3062 3063 3064 3065 3066 3067 3067 3068 3069 3069 3070 3070 3071 3071 3072 3073 3073 3074 3074 3075 3075 3076 3076 3076 3077 3077 3078 3078 3079 3080 3080 3081 3082 3082 3083 3083 3083 3084 3084 3084 3084 3085 3085 3085 3086 3086 3086 3087 3087 3087 3087 3087 3087 3087 3088 3088 3088 3088 3088 3088 3088 3088 3088 3088 3087 3087 3086 3086
3055 3056 3057 3058 3058 3058 3058 3058 3057 3057 3057 3058 3057 3058 3059 3060 3061 3061 3062 3063 3064 3065 3065 3066 3067 3067 3068 3069 3069 3069 3070 3070 3071 3071 3071 3072 3072 3073 3073 3074 3074 3075 3075 3075 3075 3076 3076 3077 3077 3078 3078 3079 3079 3079 3080 3080 3080 3081 3081 3081 3081 3082 3082 3082 3083 3083 3083 3083 3084 3084 3083 3083 3083 3083 3083 3084 3084 3083 3083 3083 3083 3083 3082 3082 3082 3081 3080
3057 3058 3058 3059 3060 3059 3059 3059 3059 3059 3059 3060 3060 3060 3061 3061 3062 3062 3063 3064 3064 3065 3066 3066 3067 3067 3068 3068 3068 3069 3069 3069 3070 3070 3071 3071 3071 3072 3072 3073 3073 3073 3073 3073 3073 3074 3074 3074 3074 3075 3075 3076 3076 3076 3076 3077 3077 3077 3077 3078 3078 3078 3079 3079 3079 3079 3080 3080 3080 3080 3080 3080 3079 3079 3079 3079 3079 3080 3079 3078 3078 3078 3077 3077 3077 3077 3076
3058 3059 3060 3061 3061 3061 3060 3060 3060 3061 3061 3061 3062 3062 3062 3062 3062 3063 3064 3064 3065 3065 3066 3066 3066 3067 3067 3068 3068 3068 3068 3069 3069 3069 3069 3070 3070 3070 3071 3071 3071 3071 3071 3072 3072 3072 3072 3072 3072 3072 3073 3073 3073 3074 3074 3074 3074 3075 3075 3075 3076 3076 3076 3076 3076 3077 3077 3077 3077 3077 3077 3077 3077 3077 3076 3075 3075 3075 3075 3075 3074 3074 3073 3073 3073 3072 3072
3060 3060 3061 3062 3062 3062 3062 3062 3062 3062 3063 3063 3063 3063 3063 3063 3063 3063 3063 3064 3064 3065 3065 3065 3066 3066 3066 3067 3067 3067 3067 3068 3068 3068 3068 3068 3068 3069 3069 3069 3069 3069 3070 3070 3070 3070 3070 3070 3071 3071 3071 3071 3071 3072 3072 3072 3073 3073 3073 3073 3073 3074 3074 3074 3074 3074 3074 3074 3074 3074 3074 3074 3074 3075 3074 3074 3073 3072 3071 3071 3071 3070 3069 3069 3068 3068 3067
3061 3061 3062 3063 3063 3063 3063 3063 3063 3064 3064 3064 3064 3064 3064 3064 3064 3064 3064 3064 3064 3065 3065 3065 3065 3065 3065 3066 3066 3066 3066 3066 3066 3066 3066 3066 3066 3067 3067 3067 3067 3067 3068 3068 3068 3068 3069 3069 3069 3069 3069 3069 3070 3070 3070 3070 3071 3071 3071 3071 3071 3071 3072 3072 3072 3072 3072 3072 3072 3072 3072 3072 3072 3071 3071 3071 3071 3070 3069 3068 3067 3066 3065 3064 3064 3063 3062
3062 3063 3064 3064 3064 3064 3064 3064 3064 3065 3065 3065 3065 3065 3065 3065 3065 3065 3065 3065 3065 3065 3064 3064 3064 3064 3064 3064 3064 3064 3064 3064 3064 3064 3064 3065 3065 3065 3065 3065 3065 3065 3066 3066 3066 3067 3067 3067 3067 3067 3067 3067 3068 3068 3068 3068 3069 3069 3069 3069 3069 3069 3069 3069 3069 3069 3069 3069 3069 3069 3069 3069 3068 3068 3068 3067 3067 3066 3066 3065 3064 3063 3061 3060 3059 3058 3057
3063 3064 3065 3065 3065 3065 3065 3065 3066 3066 3066 3066 3066 3066 3066 3066 3065 3065 3065 3065 3065 3064 3064 3064 3064 3063 3063 3063 3063 3063 3063 3063 3063 3063 3063 3063 3063 3063 3063 3063 3064 3064 3064 3064 3065 3065 3065 3065 3065 3065 3066 3066 3066 3066 3066 3066 3066 3066 3067 3067 3067 3067 3067 3067 3067 3067 3067 3067 3067 3067 3066 3066 3066 3065 3065 3064 3063 3063 3062 3062 3061 3060 3059 3058 3056 3055 3053
3065 3065 3065 3066 3066 3066 3066 3066 3067 3067 3067 3066 3066 3066 3066 3066 3065 3065 3065 3065 3064 3064 3063 3063 3062 3062 3062 3062 3062 3062 3062 3062 3062 3062 3062 3062 3062 3062 3062 3062 3062 3062 3062 3062 3063 3063 3063 3063 3063 3064 3064 3064 3064 3064 3064 3064 3064 3064 3064 3065 3065 3065 3065 3065 3065 3065 3065 3065 3065 3065 3064 3064 3063 3063 3062 3061 3061 3060 3059 3058 3058 3057 3056 3055 3054 3052 3051
3066 3066 3066 3066 3066 3066 3067 3067 3067 3067 3067 3067 3066 3066 3066 3065 3065 3065 3064 3064 3063 3063 3062 3062 3061 3061 3061 3060 3060 3060 3060 3060 3061 3061 3060 3060 3060 3061 3061 3061 3061 3061 3061 3061 3061 3061 3062 3062 3062 3062 3062 3062 3062 3062 3062 3062 3062 3063 3063 3063 3063 3063 3063 3063 3064 3064 3064 3063 3063 3063 3062 3062 3061 3060 3060 3059 3059 3058 3057 3056 3055 3054 3053 3052 3051 3050 3049
3066 3066 3066 3066 3066 3067 3067 3067 3067 3067 3066 3066 3066 3066 3065 3065 3064 3064 3064 3063 3062 3062 3061 3061 3060 3060 3059 3059 3059 3058 3058 3059 3059 3059 3059 3059 3059 3059 3059 3059 3060 3060 3060 3060 3060 3060 3060 3060 3060 3060 3060 3060 3060 3060 3060 3060 3061 3061 3061 3062 3062 3062 3062 3062 3062 3062 3062 3062 3061 3061 3061 3060 3060 3059 3059 3058 3058 3057 3056 3055 3054 3053 3051 3050 3049 3048 3047
3066 3066 3066 3066 3066 3067 3067 3066 3066 3066 3066 3065 3065 3065 3065 3064 3064 3063 3063 3062 3062 3061 3060 3060 3059 3058 3058 3058 3057 3057 3057 3057 3057 3057 3058 3058 3058 3058 3058 3058 3058 3058 3058 3059 3059 3059 3059 3059 3059 3059 3059 3059 3059 3059 3059 3059 3059 3060 3060 3060 3060 3061 3061 3061 3061 3061 3061 3061 3060 3060 3060 3060 3059 3059 3058 3058 3057 3056 3055 3054 3052 3051 3049 3048 3047 3046 3045
3066 3066 3066 3066 3066 3066 3066 3066 3066 3065 3065 3065 3065 3064 3064 3063 3063 3062 3062 3061 3061 3060 3059 3059 3058 3057 3057 3056 3056 3056 3056 3056 3056 3056 3056 3057 3057 3057 3057 3057 3057 3057 3057 3057 3057 3057 3057 3057 3057 3057 3057 3057 3057 3057 3057 3057 3058 3058 3059 3059 3059 3059 3060 3060 3060 3060 3060 3060 3060 3060 3059 3059 3059 3058 3058 3057 3056 3055 3053 3052 3050 3049 3047 3046 3045 3044 3043
3065 3066 3066 3065 3065 3065 3065 3065 3065 3064 3064 3064 3064 3063 3063 3063 3062 3061 3061 3060 3060 3059 3058 3057 3057 3056 3056 3055 3055 3055 3055 3055 3055 3055 3055 3056 3056 3056 3056 3056 3056 3056 3056 3056 3056 3056 3056 3056 3056 3055 3055 3055 3055 3055 3056 3056 3056 3057 3057 3058 3058 3058 3059 3059 3059 3059 3059 3059 3059 3059 3059 3059 3058 3058 3057 3056 3055 3054 3052 3050 3049 3047 3045 3044 3043 3042 3042
3064 3065 3065 3065 3065 3064 3064 3064 3064 3063 3063 3063 3063 3063 3062 3062 3061 3061 3060 3060 3059 3058 3057 3056 3055 3055 3055 3054 3054 3054 3054 3054 3055 3055 3055 3055 3055 3055 3055 3055 3055 3055 3055 3055 3055 3054 3054 3054 3054 3054 3054 3054 3054 3054 3054 3055 3055 3056 3056 3056 3057 3057 3057 3057 3058 3058 3058 3058 3059 3058 3058 3058 3057 3056 3056 3055 3054 3053 3051 3049 3047 3045 3043 3042 3041 3040 3040
3064 3064 3064 3064 3064 3063 3063 3063 3063 3062 3062 3062 3062 3061 3061 3061 3060 3060 3059 3059 3058 3057 3056 3055 3054 3054 3054 3054 3054 3054 3054 3054 3054 3054 3054 3054 3054 3054 3054 3054 3053 3053 3053 3053 3053 3053 3053 3053 3052 3052 3052 3052 3052 3053 3053 3054 3055 3055 3055 3056 3056 3056 3057 3057 3057 3057 3057 3058 3057 3057 3057 3057 3056 3055 3054 3054 3053 3051 3050 3048 3046 3044 3042 3041 3040 3039 3038
3063 3063 3063 3063 3063 3063 3062 3062 3062 3062 3061 3061 3061 3060 3060 3060 3059 3059 3058 3058 3057 3056 3055 3054 3054 3054 3054 3054 3054 3054 3054 3054 3054 3054 3053 3053 3053 3053 3053 3053 3052 3052 3052 3052 3052 3052 3052 3051 3051 3051 3051 3051 3052 3052 3053 3053 3054 3054 3055 3055 3055 3056 3056 3056 3056 3056 3056 3056 3056 3056 3056 3055 3055 3054 3053 3052 3052 3050 3049 3047 3046 3044 3042 3041 3039 3038 3037
3063 3062 3062 3062 3062 3062 3061 3061 3061 3061 3060 3060 3060 3059 3059 3059 3058 3058 3057 3056 3056 3055 3054 3054 3054 3054 3054 3054 3054 3054 3054 3054 3053 3053 3053 3053 3052 3052 3052 3052 3051 3051 3051 3051 3051 3051 3051 3050 3050 3050 3050 3051 3051 3051 3052 3053 3053 3054 3054 3055 3055 3055 3055 3055 3055 3055 3055 3055 3055 3055 3054 3054 3053 3053 3052 3051 3051 3050 3048 3047 3045 3044 3042 3041 3039 3038 3036
3062 3061 3061 3061 3061 3061 3061 3060 3060 3060 3060 3059 3059 3059 3058 3058 3057 3057 3056 3056 3055 3055 3054 3054 3054 3054 3054 3054 3054 3053 3053 3053 3053 3053 3052 3052 3052 3052 3051 3051 3051 3050 3050 3050 3050 3050 3050 3049 3049 3049 3050 3050 3050 3051 3051 3052 3053 3053 3054 3054 3054 3054 3054 3054 3054 3054 3054 3053 3053 3053 3053 3053 3052 3052 3051 3051 3050 3049 3048 3046 3045 3044 3042 3041 3040 3038 3036
3061 3060 3060 3060 3060 3060 3060 3059 3059 3059 3059 3059 3058 3058 3058 3057 3057 3056 3056 3055 3055 3054 3054 3054 3054 3054 3054 3054 3053 3053 3053 3053 3052 3052 3052 3051 3051 3051 3051 3050 3050 3050 3050 3049 3049 3049 3049 3049 3049 3049 3049 3050 3050 3050 3051 3052 3052 3053 3053 3053 3053 3053 3053 3053 3052 3052 3052 3052 3052 3052 3052 3051 3051 3051 3051 3050 3049 3048 3047 3046 3045 3044 3043 3041 3040 3039 3037
3060 3060 3059 3059 3059 3059 3059 3059 3058 3058 3058 3058 3057 3057 3057 3056 3056 3056 3055 3055 3055 3054 3054 3054 3054 3054 3054 3053 3053 3053 3052 3052 3052 3051 3051 3051 3050 3050 3050 3050 3049 3049 3049 3049 3048 3048 3048 3048 3048 3049 3049 3049 3050 3050 3051 3051 3052 3052 3052 3052 3052 3052 3052 3051 3051 3051 3051 3051 3050 3050 3050 3050 3050 3050 3050 3049 3049 3048 3047 3046 3045 3044 3043 3042 3041 3039 3038
3059 3059 3058 3058 3058 3058 3058 3058 3058 3057 3057 3057 3057 3056 3056 3056 3055 3055 3055 3055 3054 3054 3054 3054 3054 3054 3053 3053 3053 3052 3052 3052 3051 3051 3050 3050 3050 3049 3049 3049 3049 3048 3048 3048 3048 3048 3047 3048 3048 3048 3049 3049 3050 3050 3050 3051 3051 3051 3051 3051 3051 3051 3050 3050 3050 3050 3050 3049 3049 3049 3049 3049 3050 3049 3049 3049 3048 3047 3047 3046 3045 3044 3043 3042 3041 3040 3039
3058 3058 3057 3057 3057 3057 3057 3057 3057 3057 3056 3056 3056 3055 3055 3055 3054 3054 3054 3054 3054 3054 3054 3054 3054 3053 3053 3053 3053 3052 3052 3051 3051 3051 3050 3050 3049 3049 3049 3048 3048 3048 3048 3047 3047 3047 3047 3047 3047 3048 3048 3048 3049 3049 3050 3050 3050 3050 3050 3050 3049 3049 3049 3048 3048 3048 3048 3048 3048 3048 3048 3049 3049 3049 3048 3048 3048 3047 3047 3046 3045 3045 3044 3043 3042 3040 3039
3057 3056 3056 3056 3056 3056 3056 3056 3056 3055 3055 3055 3055 3054 3054 3054 3054 3054 3053 3053 3053 3053 3053 3053 3053 3053 3053 3053 3052 3052 3052 3051 3051 3050 3050 3049 3049 3048 3048 3048 3048 3047 3047 3047 3047 3046 3046 3046 3047 3047 3047 3048 3048 3048 3048 3048 3049 3049 3048 3048 3048 3047 3047 3047 3047 3047 3047 3047 3047 3047 3048 3048 3048 3048 3047 3047 3047 3047 3046 3046 3045 3044 3044 3043 3042 3041 3040
3056 3055 3055 3055 3055 3055 3055 3054 3054 3054 3054 3054 3053 3053 3053 3053 3053 3053 3052 3052 3052 3052 3052 3052 3052 3052 3052 3052 3052 3052 3051 3051 3051 3050 3050 3049 3049 3048 3048 3048 3047 3047 3046 3046 3046 3046 3046 3046 3046 3046 3046 3046 3047 3047 3047 3047 3047 3047 3047 3046 3046 3046 3046 3046 3045 3045 3046 3046 3046 3047 3047 3047 3047 3047 3047 3047 3046 3046 3046 3045 3045 3044 3044 3043 3042 3041 3040
3055 3055 3054 3054 3054 3053 3053 3053 3053 3052 3052 3052 3052 3052 3052 3052 3052 3051 3051 3051 3051 3051 3051 3051 3051 3051 3051 3051 3051 3051 3051 3050 3050 3050 3050 3049 3049 3049 3048 3048 3047 3046 3046 3046 3045 3045 3045 3045 3045 3045 3045 3045 3045 3045 3045 3045 3045 3045 3045 3045 3045 3044 3044 3044 3044 3045 3045 3045 3046 3046 3046 3046 3046 3046 3046 3046 3046 3046 3045 3045 3044 3044 3043 3043 3042 3041 3041
3054 3054 3053 3053 3053 3052 3052 3052 3051 3051 3051 3051 3051 3051 3050 3051 3051 3050 3050 3050 3050 3050 3050 3050 3050 3050 3050 3050 3050 3050 3049 3049 3049 3049 3049 3049 3049 3048 3048 3047 3047 3046 3046 3045 3045 3045 3044 3044 3044 3044 3044 3044 3044 3044 3044 3044 3043 3043 3043 3043 3043 3043 3044 3044 3044 3044 3044 3045 3045 3045 3046 3046 3046 3046 3046 3045 3045 3045 3045 3044 3044 3043 3043 3042 3042 3041 3041
3053 3052 3052 3052 3051 3051 3051 3050 3050 3050 3050 3050 3049 3049 3049 3049 3049 3049 3049 3048 3048 3048 3049 3049 3049 3048 3048 3048 3048 3048 3048 3048 3048 3048 3048 3048 3048 3047 3047 3047 3047 3046 3046 3045 3045 3044 3044 3043 3043 3043 3043 3042 3042 3042 3042 3042 3042 3042 3042 3042 3042 3042 3043 3043 3043 3043 3044 3044 3044 3045 3045 3045 3045 3045 3045 3045 3045 3044 3044 3044 3043 3043 3043 3042 3042 3041 3040
3051 3051 3051 3050 3050 3050 3049 3049 3049 3049 3048 3048 3048 3048 3048 3048 3048 3047 3047 3047 3047 3047 3047 3047 3047 3047 3047 3047 3047 3047 3047 3047 3047 3047 3047 3046 3046 3046 3046 3046 3046 3045 3045 3045 3044 3044 3043 3043 3042 3042 3042 3041 3041 3041 3040 3040 3040 3040 3040 3041 3041 3041 3042 3042 3043 3043 3043 3043 3044 3044 3044 3044 3044 3044 3044 3044 3044 3044 3043 3043 3043 3042 3042 3042 3041 3041 3040
3050 3050 3050 3049 3049 3049 3048 3048 3048 3047 3047 3047 3047 3047 3047 3046 3046 3046 3046 3046 3046 3046 3046 3046 3046 3046 3045 3045 3045 3045 3045 3045 3045 3045 3045 3045 3045 3045 3045 3045 3045 3044 3044 3044 3043 3043 3043 3042 3042 3041 3041 3040 3040 3039 3039 3039 3039 3039 3039 3039 3040 3040 3041 3042 3042 3042 3042 3043 3043 3043 3043 3043 3043 3043 3043 3043 3043 3043 3043 3042 3042 3042 3041 3041 3041 3040 3040
3049 3049 3048 3048 3048 3047 3047 3047 3046 3046 3046 3046 3046 3045 3045 3045 3045 3044 3044 3044 3044 3044 3044 3044 3044 3044 3044 3044 3044 3044 3044 3044 3043 3043 3043 3043 3043 3043 3043 3043 3043 3043 3042 3042 3042 3042 3042 3041 3041 3040 3040 3039 3039 3039 3038 3038 3038 3038 3038 3039 3039 3039 3040 3041 3041 3041 3041 3042 3042 3042 3042 3042 3042 3042 3042 3042 3042 3042 3042 3042 3041 3041 3041 3040 3040 3040 3040
3047 3047 3047 3047 3046 3046 3046 3045 3045 3044 3044 3044 3044 3044 3044 3043 3043 3043 3043 3043 3043 3043 3043 3043 3043 3043 3042 3042 3042 3042 3042 3042 3042 3042 3041 3041 3041 3041 3041 3041 3041 3041 3041 3041 3041 3040 3040 3040 3040 3039 3039 3038 3038 3038 3038 3038 3037 3037 3038 3038 3038 3038 3039 3039 3040 3040 3040 3040 3041 3041 3041 3041 3041 3041 3041 3041 3041 3041 3041 3041 3040 3040 3040 3039 3039 3039 3039